﻿測定場所 (Monitoring sites),日付 (Measurement date),時間 (Measurement time),線量率 最大値 (max) μGy/h,線量率 最小値 (min) μGy/h,線量率 平均値 (average) μGy/h,
江戸川 (Edogawa),2013-01-13,23:01～24:00,0.105,0.0901,0.0969,
江戸川 (Edogawa),2013-01-13,22:01～23:00,0.102,0.0906,0.0964,
江戸川 (Edogawa),2013-01-13,21:01～22:00,0.103,0.0925,0.0967,
江戸川 (Edogawa),2013-01-13,20:01～21:00,0.101,0.0909,0.0961,
江戸川 (Edogawa),2013-01-13,19:01～20:00,0.104,0.0874,0.0971,
江戸川 (Edogawa),2013-01-13,18:01～19:00,0.101,0.0931,0.0972,
江戸川 (Edogawa),2013-01-13,17:01～18:00,0.104,0.0898,0.0967,
江戸川 (Edogawa),2013-01-13,16:01～17:00,0.104,0.0936,0.0974,
江戸川 (Edogawa),2013-01-13,15:01～16:00,0.106,0.0921,0.0982,
江戸川 (Edogawa),2013-01-13,14:01～15:00,0.106,0.0918,0.0984,
江戸川 (Edogawa),2013-01-13,13:01～14:00,0.102,0.0934,0.0982,
江戸川 (Edogawa),2013-01-13,12:01～13:00,0.104,0.0925,0.0976,
江戸川 (Edogawa),2013-01-13,11:01～12:00,0.105,0.0931,0.0986,
江戸川 (Edogawa),2013-01-13,10:01～11:00,0.104,0.0924,0.0980,
江戸川 (Edogawa),2013-01-13,09:01～10:00,0.103,0.0909,0.0971,
江戸川 (Edogawa),2013-01-13,08:01～09:00,0.105,0.0895,0.0970,
江戸川 (Edogawa),2013-01-13,07:01～08:00,0.102,0.0893,0.0967,
江戸川 (Edogawa),2013-01-13,06:01～07:00,0.102,0.0902,0.0959,
江戸川 (Edogawa),2013-01-13,05:01～06:00,0.103,0.0916,0.0970,
江戸川 (Edogawa),2013-01-13,04:01～05:00,0.100,0.0915,0.0964,
江戸川 (Edogawa),2013-01-13,03:01～04:00,0.103,0.0909,0.0961,
江戸川 (Edogawa),2013-01-13,02:01～03:00,0.102,0.0900,0.0958,
江戸川 (Edogawa),2013-01-13,01:01～02:00,0.102,0.0894,0.0956,
江戸川 (Edogawa),2013-01-13,00:01～01:00,0.101,0.0874,0.0961,
江戸川 (Edogawa),2013-01-12,23:01～24:00,0.102,0.0887,0.0961,
江戸川 (Edogawa),2013-01-12,22:01～23:00,0.102,0.0910,0.0964,
江戸川 (Edogawa),2013-01-12,21:01～22:00,0.103,0.0900,0.0963,
江戸川 (Edogawa),2013-01-12,20:01～21:00,0.100,0.0893,0.0962,
江戸川 (Edogawa),2013-01-12,19:01～20:00,0.100,0.0882,0.0961,
江戸川 (Edogawa),2013-01-12,18:01～19:00,0.101,0.0904,0.0969,
江戸川 (Edogawa),2013-01-12,17:01～18:00,0.103,0.0901,0.0961,
江戸川 (Edogawa),2013-01-12,16:01～17:00,0.103,0.0926,0.0974,
江戸川 (Edogawa),2013-01-12,15:01～16:00,0.103,0.0906,0.0973,
江戸川 (Edogawa),2013-01-12,14:01～15:00,0.101,0.0905,0.0963,
江戸川 (Edogawa),2013-01-12,13:01～14:00,0.102,0.0919,0.0972,
江戸川 (Edogawa),2013-01-12,12:01～13:00,0.105,0.0927,0.0983,
江戸川 (Edogawa),2013-01-12,11:01～12:00,0.103,0.0916,0.0969,
江戸川 (Edogawa),2013-01-12,10:01～11:00,0.104,0.0921,0.0972,
江戸川 (Edogawa),2013-01-12,09:01～10:00,0.101,0.0899,0.0966,
江戸川 (Edogawa),2013-01-12,08:01～09:00,0.100,0.0900,0.0959,
江戸川 (Edogawa),2013-01-12,07:01～08:00,0.101,0.0895,0.0962,
江戸川 (Edogawa),2013-01-12,06:01～07:00,0.101,0.0891,0.0966,
江戸川 (Edogawa),2013-01-12,05:01～06:00,0.102,0.0899,0.0968,
江戸川 (Edogawa),2013-01-12,04:01～05:00,0.102,0.0889,0.0963,
江戸川 (Edogawa),2013-01-12,03:01～04:00,0.100,0.0907,0.0963,
江戸川 (Edogawa),2013-01-12,02:01～03:00,0.101,0.0905,0.0958,
江戸川 (Edogawa),2013-01-12,01:01～02:00,0.101,0.0873,0.0955,
江戸川 (Edogawa),2013-01-12,00:01～01:00,0.104,0.0900,0.0962,
江戸川 (Edogawa),2013-01-11,23:01～24:00,0.102,0.0885,0.0955,
江戸川 (Edogawa),2013-01-11,22:01～23:00,0.0997,0.0902,0.0954,
江戸川 (Edogawa),2013-01-11,21:01～22:00,0.103,0.0906,0.0957,
江戸川 (Edogawa),2013-01-11,20:01～21:00,0.102,0.0903,0.0960,
江戸川 (Edogawa),2013-01-11,19:01～20:00,0.101,0.0868,0.0955,
江戸川 (Edogawa),2013-01-11,18:01～19:00,0.101,0.0905,0.0954,
江戸川 (Edogawa),2013-01-11,17:01～18:00,0.102,0.0886,0.0952,
江戸川 (Edogawa),2013-01-11,16:01～17:00,0.103,0.0918,0.0967,
江戸川 (Edogawa),2013-01-11,15:01～16:00,0.103,0.0910,0.0967,
江戸川 (Edogawa),2013-01-11,14:01～15:00,0.104,0.0923,0.0967,
江戸川 (Edogawa),2013-01-11,13:01～14:00,0.103,0.0895,0.0962,
江戸川 (Edogawa),2013-01-11,12:01～13:00,0.102,0.0890,0.0972,
江戸川 (Edogawa),2013-01-11,11:01～12:00,0.103,0.0874,0.0963,
江戸川 (Edogawa),2013-01-11,10:01～11:00,0.102,0.0910,0.0955,
江戸川 (Edogawa),2013-01-11,09:01～10:00,0.101,0.0880,0.0952,
江戸川 (Edogawa),2013-01-11,08:01～09:00,0.101,0.0900,0.0955,
江戸川 (Edogawa),2013-01-11,07:01～08:00,0.104,0.0906,0.0957,
江戸川 (Edogawa),2013-01-11,06:01～07:00,0.103,0.0896,0.0950,
江戸川 (Edogawa),2013-01-11,05:01～06:00,0.100,0.0902,0.0958,
江戸川 (Edogawa),2013-01-11,04:01～05:00,0.101,0.0903,0.0956,
江戸川 (Edogawa),2013-01-11,03:01～04:00,0.101,0.0910,0.0962,
江戸川 (Edogawa),2013-01-11,02:01～03:00,0.100,0.0893,0.0953,
江戸川 (Edogawa),2013-01-11,01:01～02:00,0.101,0.0902,0.0964,
江戸川 (Edogawa),2013-01-11,00:01～01:00,0.100,0.0919,0.0956,
江戸川 (Edogawa),2013-01-10,23:01～24:00,0.101,0.0903,0.0957,
江戸川 (Edogawa),2013-01-10,22:01～23:00,0.102,0.0903,0.0959,
江戸川 (Edogawa),2013-01-10,21:01～22:00,0.101,0.0880,0.0961,
江戸川 (Edogawa),2013-01-10,20:01～21:00,0.0999,0.0903,0.0955,
江戸川 (Edogawa),2013-01-10,19:01～20:00,0.101,0.0919,0.0958,
江戸川 (Edogawa),2013-01-10,18:01～19:00,0.100,0.0913,0.0957,
江戸川 (Edogawa),2013-01-10,17:01～18:00,0.100,0.0899,0.0956,
江戸川 (Edogawa),2013-01-10,16:01～17:00,0.103,0.0906,0.0972,
江戸川 (Edogawa),2013-01-10,15:01～16:00,0.106,0.0906,0.0965,
江戸川 (Edogawa),2013-01-10,14:01～15:00,0.101,0.0896,0.0964,
江戸川 (Edogawa),2013-01-10,13:01～14:00,0.101,0.0905,0.0962,
江戸川 (Edogawa),2013-01-10,12:01～13:00,0.102,0.0908,0.0968,
江戸川 (Edogawa),2013-01-10,11:01～12:00,0.102,0.0910,0.0965,
江戸川 (Edogawa),2013-01-10,10:01～11:00,0.101,0.0875,0.0960,
江戸川 (Edogawa),2013-01-10,09:01～10:00,0.103,0.0917,0.0963,
江戸川 (Edogawa),2013-01-10,08:01～09:00,0.102,0.0900,0.0968,
江戸川 (Edogawa),2013-01-10,07:01～08:00,0.102,0.0902,0.0959,
江戸川 (Edogawa),2013-01-10,06:01～07:00,0.102,0.0914,0.0969,
江戸川 (Edogawa),2013-01-10,05:01～06:00,0.102,0.0906,0.0962,
江戸川 (Edogawa),2013-01-10,04:01～05:00,0.103,0.0911,0.0969,
江戸川 (Edogawa),2013-01-10,03:01～04:00,0.103,0.0897,0.0955,
江戸川 (Edogawa),2013-01-10,02:01～03:00,0.103,0.0925,0.0972,
江戸川 (Edogawa),2013-01-10,01:01～02:00,0.102,0.0906,0.0969,
江戸川 (Edogawa),2013-01-10,00:01～01:00,0.100,0.0913,0.0968,
江戸川 (Edogawa),2013-01-09,23:01～24:00,0.102,0.0897,0.0962,
江戸川 (Edogawa),2013-01-09,22:01～23:00,0.102,0.0910,0.0961,
江戸川 (Edogawa),2013-01-09,21:01～22:00,0.101,0.0893,0.0959,
江戸川 (Edogawa),2013-01-09,20:01～21:00,0.102,0.0897,0.0965,
江戸川 (Edogawa),2013-01-09,19:01～20:00,0.101,0.0911,0.0971,
江戸川 (Edogawa),2013-01-09,18:01～19:00,0.102,0.0912,0.0962,
江戸川 (Edogawa),2013-01-09,17:01～18:00,0.101,0.0908,0.0964,
江戸川 (Edogawa),2013-01-09,16:01～17:00,0.105,0.0897,0.0974,
江戸川 (Edogawa),2013-01-09,15:01～16:00,0.101,0.0926,0.0976,
江戸川 (Edogawa),2013-01-09,14:01～15:00,0.106,0.0918,0.0979,
江戸川 (Edogawa),2013-01-09,13:01～14:00,0.103,0.0909,0.0974,
江戸川 (Edogawa),2013-01-09,12:01～13:00,0.103,0.0898,0.0971,
江戸川 (Edogawa),2013-01-09,11:01～12:00,0.103,0.0917,0.0971,
江戸川 (Edogawa),2013-01-09,10:01～11:00,0.104,0.0900,0.0968,
江戸川 (Edogawa),2013-01-09,09:01～10:00,0.101,0.0920,0.0966,
江戸川 (Edogawa),2013-01-09,08:01～09:00,0.103,0.0912,0.0967,
江戸川 (Edogawa),2013-01-09,07:01～08:00,0.102,0.0916,0.0968,
江戸川 (Edogawa),2013-01-09,06:01～07:00,0.101,0.0923,0.0961,
江戸川 (Edogawa),2013-01-09,05:01～06:00,0.102,0.0897,0.0962,
江戸川 (Edogawa),2013-01-09,04:01～05:00,0.105,0.0903,0.0968,
江戸川 (Edogawa),2013-01-09,03:01～04:00,0.102,0.0905,0.0964,
江戸川 (Edogawa),2013-01-09,02:01～03:00,0.103,0.0904,0.0960,
江戸川 (Edogawa),2013-01-09,01:01～02:00,0.103,0.0914,0.0961,
江戸川 (Edogawa),2013-01-09,00:01～01:00,0.104,0.0915,0.0965,
江戸川 (Edogawa),2013-01-08,23:01～24:00,0.102,0.0904,0.0963,
江戸川 (Edogawa),2013-01-08,22:01～23:00,0.101,0.0905,0.0965,
江戸川 (Edogawa),2013-01-08,21:01～22:00,0.104,0.0916,0.0960,
江戸川 (Edogawa),2013-01-08,20:01～21:00,0.101,0.0884,0.0962,
江戸川 (Edogawa),2013-01-08,19:01～20:00,0.102,0.0901,0.0959,
江戸川 (Edogawa),2013-01-08,18:01～19:00,0.101,0.0902,0.0962,
江戸川 (Edogawa),2013-01-08,17:01～18:00,0.102,0.0886,0.0965,
江戸川 (Edogawa),2013-01-08,16:01～17:00,0.102,0.0897,0.0963,
江戸川 (Edogawa),2013-01-08,15:01～16:00,0.103,0.0920,0.0970,
江戸川 (Edogawa),2013-01-08,14:01～15:00,0.103,0.0909,0.0973,
江戸川 (Edogawa),2013-01-08,13:01～14:00,0.103,0.0926,0.0977,
江戸川 (Edogawa),2013-01-08,12:01～13:00,0.104,0.0912,0.0975,
江戸川 (Edogawa),2013-01-08,11:01～12:00,0.101,0.0926,0.0974,
江戸川 (Edogawa),2013-01-08,10:01～11:00,0.105,0.0901,0.0971,
江戸川 (Edogawa),2013-01-08,09:01～10:00,0.102,0.0890,0.0968,
江戸川 (Edogawa),2013-01-08,08:01～09:00,0.104,0.0914,0.0963,
江戸川 (Edogawa),2013-01-08,07:01～08:00,0.104,0.0919,0.0962,
江戸川 (Edogawa),2013-01-08,06:01～07:00,0.103,0.0875,0.0968,
江戸川 (Edogawa),2013-01-08,05:01～06:00,0.101,0.0908,0.0961,
江戸川 (Edogawa),2013-01-08,04:01～05:00,0.102,0.0897,0.0963,
江戸川 (Edogawa),2013-01-08,03:01～04:00,0.104,0.0907,0.0967,
江戸川 (Edogawa),2013-01-08,02:01～03:00,0.101,0.0926,0.0968,
江戸川 (Edogawa),2013-01-08,01:01～02:00,0.103,0.0907,0.0966,
江戸川 (Edogawa),2013-01-08,00:01～01:00,0.104,0.0911,0.0966,
江戸川 (Edogawa),2013-01-07,23:01～24:00,0.101,0.0902,0.0966,
江戸川 (Edogawa),2013-01-07,22:01～23:00,0.101,0.0915,0.0967,
江戸川 (Edogawa),2013-01-07,21:01～22:00,0.101,0.0889,0.0956,
江戸川 (Edogawa),2013-01-07,20:01～21:00,0.101,0.0890,0.0951,
江戸川 (Edogawa),2013-01-07,19:01～20:00,0.101,0.0905,0.0957,
江戸川 (Edogawa),2013-01-07,18:01～19:00,0.0999,0.0909,0.0955,
江戸川 (Edogawa),2013-01-07,17:01～18:00,0.101,0.0904,0.0963,
江戸川 (Edogawa),2013-01-07,16:01～17:00,0.101,0.0912,0.0969,
江戸川 (Edogawa),2013-01-07,15:01～16:00,0.105,0.0904,0.0970,
江戸川 (Edogawa),2013-01-07,14:01～15:00,0.103,0.0924,0.0970,
江戸川 (Edogawa),2013-01-07,13:01～14:00,0.104,0.0906,0.0978,
江戸川 (Edogawa),2013-01-07,12:01～13:00,0.104,0.0932,0.0974,
江戸川 (Edogawa),2013-01-07,11:01～12:00,0.102,0.0905,0.0971,
江戸川 (Edogawa),2013-01-07,10:01～11:00,0.102,0.0908,0.0963,
江戸川 (Edogawa),2013-01-07,09:01～10:00,0.100,0.0917,0.0958,
江戸川 (Edogawa),2013-01-07,08:01～09:00,0.103,0.0879,0.0949,
江戸川 (Edogawa),2013-01-07,07:01～08:00,0.102,0.0876,0.0950,
江戸川 (Edogawa),2013-01-07,06:01～07:00,0.101,0.0908,0.0951,
江戸川 (Edogawa),2013-01-07,05:01～06:00,0.102,0.0906,0.0958,
江戸川 (Edogawa),2013-01-07,04:01～05:00,0.102,0.0895,0.0958,
江戸川 (Edogawa),2013-01-07,03:01～04:00,0.100,0.0901,0.0951,
江戸川 (Edogawa),2013-01-07,02:01～03:00,0.101,0.0885,0.0960,
江戸川 (Edogawa),2013-01-07,01:01～02:00,0.100,0.0907,0.0955,
江戸川 (Edogawa),2013-01-07,00:01～01:00,0.101,0.0895,0.0953,
